Regional Weather Roundup
Issued by NWS State College, PA

Home | Current Version | Previous Version | Text Only | Print | Product List | Glossary On
Versions: 1 2 3 4 5 6 7 8 9 10 11 12 13 14 15 16 17 18 19 20 21 22 23 24 25 26 27 28 29 30 31 32 33 34 35 36 37 38 39 40 41 42 43 44 45 46 47 48 49 50
000
ASUS41 KCTP 300203
RWRCTP

REGIONAL WEATHER ROUNDUP
NATIONAL WEATHER SERVICE STATE COLLEGE PA
1000 PM EDT FRI JUL 29 2016

Note: "fair" indicates few or no clouds below 12,000 feet with no
significant weather and/or obstructions to visibility.

* = STATION THAT DOES NOT REPORT PRECIPITATION /E.G. RAIN...SNOW...ETC/
    THUNDER OR FOG.

PAZ002>004-007>009-013>016-020>023-029>032-300300-
WESTERN PENNSYLVANIA

CITY           SKY/WX    TMP DP  RH WIND       PRES   REMARKS
ERIE           PTCLDY    76  67  73 NE6       29.98R
MEADVILLE      FOG       67  66  97 NE5       30.00R VSB 1/2
FRANKLIN*      CLOUDY    64  63  94 NE5       30.01R VSB<1/4
NEW CASTLE     FAIR      70  67  90 CALM      29.98S
BEAVER COUNTY  NOT AVBL
BUTLER*        PTCLDY    70  64  83 N5        30.01R
PITTSBURGH INT PTCLDY    76  65  68 NE9       29.96R
PITTSBURGH     CLEAR     79  63  57 CALM      29.96R
INDIANA*       PTCLDY    73  64  73 CALM      30.02R
LATROBE        CLEAR     73  70  88 CALM      29.97R
WASHINGTON CO* CLEAR     70  64  83 CALM      29.97R
$$

PAZ004>006-010>012-017>019-024>028-033>037-041-042-045-046-049>053-300300-
CENTRAL PENNSYLVANIA

CITY           SKY/WX    TMP DP  RH WIND       PRES   REMARKS
BRADFORD       CLOUDY    69  64  84 CALM      30.03R
DUBOIS         CLOUDY    71  64  78 N5        30.01R
CLEARFIELD     CLOUDY    71  63  75 N3        30.00R
JOHNSTOWN      CLEAR     74  60  61 N5        30.02S
ALTOONA        CLEAR     70  67  90 CALM      29.99R
STATE COLLEGE  CLOUDY    72  64  77 NE3       29.98R
WILLIAMSPORT   MOCLDY    80  64  58 W7        29.93R
SELINSGROVE    CLOUDY    72  71  97 CALM      29.94R
FT INDIANTOWN  CLOUDY    76  68  76 E1        29.92R
CAPITAL CITY   CLEAR     84  67  56 SW5       29.91R
HARRISBURG     PTCLDY    83  71  67 SW9       29.90R
YORK           CLEAR     76  69  79 S5        29.93R
$$

PAZ038>040-043-044-047-048-054-055-060>062-067>071-300300-
EASTERN PENNSYLVANIA

CITY           SKY/WX    TMP DP  RH WIND       PRES   REMARKS
SCRANTON       PTCLDY    76  65  68 E6        29.95R
MOUNT POCONO   CLEAR     66  63  90 CALM      30.00R
ALLENTOWN      CLOUDY    78  70  76 E5        29.93R
QUAKERTOWN*    MOCLDY    73  72  94 CALM      29.96R
READING        CLOUDY    80  65  59 SE3       29.91R
LANCASTER      CLEAR     77  69  76 CALM      29.92R
COATESVILLE    CLEAR     77  70  78 CALM      29.95R
POTTSTOWN      CLOUDY    79  67  66 N5        29.94R
BLUE BELL      CLEAR     73  70  88 CALM      29.91R
DOYLESTOWN     CLOUDY    75  70  84 N12G23    29.95R
WILLOW GROVE   NOT AVBL
NORTH PHILA    CLEAR     80  70  71 CALM      29.92R
PHILADELPHIA   PTCLDY    80  71  74 S10       29.92R
$$




USA.gov is the U.S. government's official web portal to all federal, state and local government web resources and services.